[keps] orb08262.amsat

Ray Hoad r.hoad at att.net
Thu Sep 18 18:07:57 PDT 2008


SB KEPS @ AMSAT  $ORB08262.O
Orbital Elements  08262.OSCAR

HR AMSAT ORBITAL ELEMENTS FOR OSCAR SATELLITES
FROM WA5QGD FORT WORTH,TX September 18, 2008
Send Subscribe/unsubscribe to KEPS at 
http://www.amsat.org/mailman/listinfo/keps
BID: ORB08262.O
TO ALL RADIO AMATEURS BT

Satellite: AO-07
Catalog number: 07530
Epoch time:      08262.58738398
Element set:     281
Inclination:      101.4602 deg
RA of node:       290.9391 deg
Eccentricity:    0.0012191
Arg of perigee:   079.3992 deg
Mean anomaly:     280.8456 deg
Mean motion:   12.53574160 rev/day
Decay rate:       -2.7e-07 rev/day^2
Epoch rev:           54868
Checksum:              321

Satellite: AO-10
Catalog number: 14129
Epoch time:      08260.96983758
Element set:     561
Inclination:      026.0330 deg
RA of node:       195.2478 deg
Eccentricity:    0.5964420
Arg of perigee:   157.6305 deg
Mean anomaly:     246.2422 deg
Mean motion:   02.05869325 rev/day
Decay rate:       -9.6e-07 rev/day^2
Epoch rev:           18999
Checksum:              333

Satellite: UO-11
Catalog number: 14781
Epoch time:      08262.50698165
Element set:     770
Inclination:      098.1473 deg
RA of node:       297.9001 deg
Eccentricity:    0.0010006
Arg of perigee:   128.9428 deg
Mean anomaly:     231.2641 deg
Mean motion:   14.79663596 rev/day
Decay rate:       -6.0e-07 rev/day^2
Epoch rev:           31765
Checksum:              311

Satellite: RS-15
Catalog number: 23439
Epoch time:      08261.69659202
Element set:    0186
Inclination:      064.8186 deg
RA of node:       345.4540 deg
Eccentricity:    0.0146265
Arg of perigee:   104.9475 deg
Mean anomaly:     256.7691 deg
Mean motion:   11.27552769 rev/day
Decay rate:       -3.9e-07 rev/day^2
Epoch rev:           56539
Checksum:              343

Satellite: FO-29
Catalog number: 24278
Epoch time:      08262.74536038
Element set:     860
Inclination:      098.5774 deg
RA of node:       166.7604 deg
Eccentricity:    0.0350529
Arg of perigee:   333.5253 deg
Mean anomaly:     024.8344 deg
Mean motion:   13.52939763 rev/day
Decay rate:       -7.2e-07 rev/day^2
Epoch rev:           59704
Checksum:              339

Satellite: SO-33
Catalog number: 25509
Epoch time:      08261.94602420
Element set:    0284
Inclination:      031.4287 deg
RA of node:       151.8672 deg
Eccentricity:    0.0354460
Arg of perigee:   118.2881 deg
Mean anomaly:     245.3978 deg
Mean motion:   14.28224519 rev/day
Decay rate:        5.1e-07 rev/day^2
Epoch rev:           51688
Checksum:              312

Satellite: AO-40
Catalog number: 26609
Epoch time:      08261.15347167
Element set:    0121
Inclination:      007.8057 deg
RA of node:       060.3522 deg
Eccentricity:    0.7935485
Arg of perigee:   123.8033 deg
Mean anomaly:     337.0196 deg
Mean motion:   01.25586612 rev/day
Decay rate:      -3.56e-06 rev/day^2
Epoch rev:           03619
Checksum:              297

Satellite: VO-52
Catalog number: 28650
Epoch time:      08261.59982595
Element set:    0034
Inclination:      097.7818 deg
RA of node:       325.6333 deg
Eccentricity:    0.0026786
Arg of perigee:   197.1448 deg
Mean anomaly:     162.8864 deg
Mean motion:   14.81496822 rev/day
Decay rate:      -2.66e-06 rev/day^2
Epoch rev:           18228
Checksum:              358

Satellite: PO-63
Catalog number: 29712
Epoch time:      08262.57754734
Element set:     806
Inclination:      097.8675 deg
RA of node:       318.9740 deg
Eccentricity:    0.0015431
Arg of perigee:   078.3546 deg
Mean anomaly:     281.9404 deg
Mean motion:   14.80266975 rev/day
Decay rate:       3.75e-06 rev/day^2
Epoch rev:            9128
Checksum:              346

/EX
SB KEPS @ AMSAT  $ORB08262.D
Orbital Elements  08262.MICROS

HR AMSAT ORBITAL ELEMENTS FOR THE MICROSATS
FROM WA5QGD FORT WORTH,TX September 18, 2008
Send Subscribe/unsubscribe to KEPS at 
http://www.amsat.org/mailman/listinfo/keps
BID: ORB08262.D
TO ALL RADIO AMATEURS BT

Satellite: AO-16
Catalog number: 20439
Epoch time:      08262.50375341
Element set:     420
Inclination:      098.2412 deg
RA of node:       237.8448 deg
Eccentricity:    0.0009942
Arg of perigee:   259.3018 deg
Mean anomaly:     100.7044 deg
Mean motion:   14.31802760 rev/day
Decay rate:       -1.5e-07 rev/day^2
Epoch rev:           97427
Checksum:              286

Satellite: LO-19
Catalog number: 20442
Epoch time:      08262.46572843
Element set:     343
Inclination:      098.2097 deg
RA of node:       246.0569 deg
Eccentricity:    0.0010982
Arg of perigee:   255.1572 deg
Mean anomaly:     104.8407 deg
Mean motion:   14.32041066 rev/day
Decay rate:        4.6e-07 rev/day^2
Epoch rev:           97442
Checksum:              301

Satellite: AO-27
Catalog number: 22825
Epoch time:      08261.54023401
Element set:    0064
Inclination:      098.3955 deg
RA of node:       218.1442 deg
Eccentricity:    0.0008423
Arg of perigee:   355.0274 deg
Mean anomaly:     005.0817 deg
Mean motion:   14.29246919 rev/day
Decay rate:        2.8e-07 rev/day^2
Epoch rev:           78096
Checksum:              297

Satellite: IO-26
Catalog number: 22826
Epoch time:      08261.50820347
Element set:    0777
Inclination:      098.3874 deg
RA of node:       218.9809 deg
Eccentricity:    0.0008936
Arg of perigee:   350.9333 deg
Mean anomaly:     009.1686 deg
Mean motion:   14.29496384 rev/day
Decay rate:       -6.0e-08 rev/day^2
Epoch rev:           78105
Checksum:              343

Satellite: GO-32
Catalog number: 25397
Epoch time:      08261.84543962
Element set:    0701
Inclination:      098.3575 deg
RA of node:       292.4011 deg
Eccentricity:    0.0001330
Arg of perigee:   014.0649 deg
Mean anomaly:     346.0574 deg
Mean motion:   14.23148497 rev/day
Decay rate:        6.2e-07 rev/day^2
Epoch rev:           52939
Checksum:              303

Satellite: NO-44
Catalog number: 26931
Epoch time:      08261.91796002
Element set:    0981
Inclination:      067.0529 deg
RA of node:       045.7662 deg
Eccentricity:    0.0007223
Arg of perigee:   264.4929 deg
Mean anomaly:     095.5379 deg
Mean motion:   14.29533153 rev/day
Decay rate:        2.1e-07 rev/day^2
Epoch rev:           36366
Checksum:              319

Satellite: SO-50
Catalog number: 27607
Epoch time:      08262.18974054
Element set:     701
Inclination:      064.5582 deg
RA of node:       131.1871 deg
Eccentricity:    0.0086184
Arg of perigee:   261.4524 deg
Mean anomaly:     097.6804 deg
Mean motion:   14.71380260 rev/day
Decay rate:        4.0e-08 rev/day^2
Epoch rev:           30865
Checksum:              298

Satellite: CO-55
Catalog number: 27844
Epoch time:      08261.91522717
Element set:    0398
Inclination:      098.7182 deg
RA of node:       268.9042 deg
Eccentricity:    0.0009203
Arg of perigee:   204.8394 deg
Mean anomaly:     155.2338 deg
Mean motion:   14.20596631 rev/day
Decay rate:        4.4e-07 rev/day^2
Epoch rev:           27060
Checksum:              314

Satellite: CO-57
Catalog number: 27848
Epoch time:      08261.92580863
Element set:    0349
Inclination:      098.7190 deg
RA of node:       267.9948 deg
Eccentricity:    0.0009086
Arg of perigee:   210.2493 deg
Mean anomaly:     149.8169 deg
Mean motion:   14.20404590 rev/day
Decay rate:        3.0e-07 rev/day^2
Epoch rev:           27057
Checksum:              340

Satellite: AO-51
Catalog number: 28375
Epoch time:      08261.63268576
Element set:     200
Inclination:      098.0679 deg
RA of node:       280.9900 deg
Eccentricity:    0.0082861
Arg of perigee:   232.5132 deg
Mean anomaly:     126.8508 deg
Mean motion:   14.40618205 rev/day
Decay rate:       -3.0e-08 rev/day^2
Epoch rev:           22171
Checksum:              293

Satellite: CO-56
Catalog number: 28941
Epoch time:      08262.46143564
Element set:     387
Inclination:      098.1162 deg
RA of node:       026.2675 deg
Eccentricity:    0.0152462
Arg of perigee:   061.3542 deg
Mean anomaly:     300.3024 deg
Mean motion:   15.61386238 rev/day
Decay rate:     2.6099e-04 rev/day^2
Epoch rev:           14457
Checksum:              310

Satellite: CP3
Catalog number: 31128
Epoch time:      08261.88543061
Element set:    0436
Inclination:      098.0306 deg
RA of node:       321.3630 deg
Eccentricity:    0.0103832
Arg of perigee:   048.7249 deg
Mean anomaly:     312.2831 deg
Mean motion:   14.51974742 rev/day
Decay rate:       -4.6e-07 rev/day^2
Epoch rev:           07538
Checksum:              286

Satellite: CP4
Catalog number: 31132
Epoch time:      08262.81586098
Element set:     415
Inclination:      098.0350 deg
RA of node:       324.8712 deg
Eccentricity:    0.0086280
Arg of perigee:   038.6809 deg
Mean anomaly:     322.0526 deg
Mean motion:   14.55143069 rev/day
Decay rate:       1.33e-06 rev/day^2
Epoch rev:            7556
Checksum:              294

Satellite: CO-65
Catalog number: 32785
Epoch time:      08262.67022862
Element set:     161
Inclination:      097.9846 deg
RA of node:       322.3197 deg
Eccentricity:    0.0014627
Arg of perigee:   188.3932 deg
Mean anomaly:     171.7041 deg
Mean motion:   14.81391671 rev/day
Decay rate:        6.2e-07 rev/day^2
Epoch rev:            2124
Checksum:              309

/EX
SB KEPS @ AMSAT  $ORB08262.W
Orbital Elements  08262.WEATHER

HR AMSAT ORBITAL ELEMENTS FOR WEATHER SATELLITES
FROM WA5QGD FORT WORTH,TX September 18, 2008
Send Subscribe/unsubscribe to KEPS at 
http://www.amsat.org/mailman/listinfo/keps
BID: ORB08262.W
TO ALL RADIO AMATEURS BT

Satellite: NOAA-10
Catalog number: 16969
Epoch time:      08262.10576547
Element set:     292
Inclination:      098.7183 deg
RA of node:       283.8754 deg
Eccentricity:    0.0011482
Arg of perigee:   271.8124 deg
Mean anomaly:     088.1758 deg
Mean motion:   14.27368119 rev/day
Decay rate:       -2.5e-07 rev/day^2
Epoch rev:           14469
Checksum:              334

